This demonstration page uses our WeatherBlox Daily Observations layout. Learn more.

Left ArrowRight Arrow

44.8408, -93.29828

Hourly Observations for March 4, 2016

Temp ( °F °C ) Dew Point ( °F °C ) Humidity (%) Winds ( mph kmh ) Pressure ( in mb ) Visibility ( mi km ) Precip ( " mm )
12:53 am 00:53 Cloudy 31 -0.6 17 -8.3 56 56 Calm 30.15 1021 10 16 0.00 0.00
1:53 am 01:53 Cloudy 31 -0.6 17 -8.3 56 56 SSW 3 6 30.14 1021 10 16 0.00 0.00
2:53 am 02:53 Cloudy 31 -0.6 20 -6.7 64 64 W 7 11 30.13 1020 10 16 0.00 0.00
3:53 am 03:53 Cloudy 30 -1.1 20 -6.7 66 66 W 5 7 30.13 1020 10 16 0.00 0.00
4:53 am 04:53 Cloudy 30 -1.1 19 -7.2 64 64 W 6 9 30.14 1021 10 16 0.00 0.00
5:53 am 05:53 Cloudy 29 -1.7 18 -7.8 63 63 W 5 7 30.13 1020 10 16 0.00 0.00
6:53 am 06:53 Cloudy 30 -1.1 18 -7.8 61 61 Calm 30.11 1020 10 16 0.00 0.00
7:53 am 07:53 Cloudy 30 -1.1 19 -7.2 64 64 SE 5 7 30.10 1019 10 16 0.00 0.00
8:53 am 08:53 Cloudy 31 -0.6 20 -6.7 64 64 SSE 9 15 30.09 1019 10 16 0.00 0.00
9:31 am 09:31 Cloudy 33 0.6 22 -5.6 64 64 S 9 15 30.09 1019 10 16 0.00 0.00
9:53 am 09:53 Cloudy 33 0.6 23 -5 66 66 SSE 13 20 30.08 1019 10 16 0.00 0.00
9:57 am 09:57 Cloudy 33 0.6 23 -5 66 66 SSE 13 20 30.09 1019 10 16 0.00 0.00
10:53 am 10:53 Cloudy 33 0.6 23 -5 66 66 S 13 20 30.09 1019 10 16 0.00 0.00
11:53 am 11:53 Cloudy with Light Snow 33 0.6 24 -4.4 70 70 S 13 20 30.08 1019 7 11 0.00 0.03
12:11 pm 12:11 Cloudy with Light Snow 32 0 24 -4.4 73 73 S 12 19 30.06 1018 2 2 0.00 0.03
12:23 pm 12:23 Cloudy with Light Snow 31 -0.6 26 -3.3 82 82 S 12 19 30.06 1018 1 2 0.00 0.03
12:35 pm 12:35 Cloudy with Light Snow 31 -0.6 26 -3.3 82 82 S 10 17 30.06 1018 3 4 0.00 0.03
12:43 pm 12:43 Cloudy with Light Snow 31 -0.6 26 -3.3 82 82 S 10 17 30.06 1018 4 6 0.01 0.25
12:53 pm 12:53 Cloudy with Light Snow 31 -0.6 26 -3.3 82 82 S 13 20 30.04 1017 5 8 0.01 0.25
1:08 pm 13:08 Cloudy with Light Snow 30 -1 27 -3 86 86 S 14 22 30.03 1017 5 8 0.00 0.00
1:14 pm 13:14 Cloudy with Light Snow 30 -1 27 -3 86 86 S 13 20 30.03 1017 2 2 0.00 0.00
1:23 pm 13:23 Cloudy with Light Snow 31 -0.6 27 -2.8 85 85 S 13 20 30.03 1017 1 2 0.00 0.03
1:29 pm 13:29 Cloudy with Snow 31 -0.6 28 -2.2 89 89 S 13 20 30.00 1016 1 1 0.00 0.03
1:35 pm 13:35 Cloudy with Snow 31 -0.6 28 -2.2 89 89 SSE 12 19 30.00 1016 1 1 0.00 0.03
1:53 pm 13:53 Cloudy with Light Snow 30 -1.1 28 -2.2 92 92 SSE 14 22 29.98 1015 1 1 0.01 0.25
2:17 pm 14:17 Cloudy with Light Snow 30 -1.1 28 -2.2 92 92 SSE 15 24 29.97 1015 2 3 0.01 0.25
2:27 pm 14:27 Cloudy with Light Snow 31 -0.6 28 -2.2 89 89 S 17 28 29.97 1015 1 2 0.01 0.25
2:36 pm 14:36 Cloudy with Light Snow 30 -1 28 -2 93 93 SSE 17 28 29.97 1015 4 6 0.00 0.00
2:48 pm 14:48 Cloudy 30 -1 28 -2 93 93 S 15 24 29.97 1015 7 11 0.00 0.00
2:53 pm 14:53 Cloudy with Light Snow 31 -0.6 28 -2.2 89 89 S 15 24 29.96 1014 8 13 0.03 0.76
3:53 pm 15:53 Cloudy 33 0.6 28 -2.2 82 82 S 7 11 29.98 1015 8 13 0.00 0.03
4:53 pm 16:53 Cloudy 34 1.1 29 -1.7 82 82 S 7 11 29.97 1015 7 11 0.00 0.00
5:07 pm 17:07 Cloudy with Mist and Fog 33 0.6 30 -1.1 89 89 S 7 11 30.00 1016 2 3 0.00 0.00
5:53 pm 17:53 Cloudy with Mist and Fog 33 0.6 31 -0.6 92 92 SSW 8 13 29.96 1014 2 3 0.00 0.00
6:17 pm 18:17 Cloudy with Mist and Fog 34 1.1 31 -0.6 89 89 S 7 11 29.97 1015 3 4 0.00 0.00
6:29 pm 18:29 Cloudy with Mist and Fog 34 1.1 31 -0.6 89 89 SSW 7 11 29.97 1015 3 5 0.00 0.00
6:53 pm 18:53 Cloudy with Mist and Fog 34 1.1 31 -0.6 89 89 SW 8 13 29.95 1014 2 3 0.00 0.00
7:12 pm 19:12 Cloudy with Drizzle 34 1 32 0 93 93 SW 7 11 29.97 1015 2 3 0.00 0.00
7:32 pm 19:32 Cloudy with Drizzle 34 1 32 0 93 93 WSW 7 11 29.97 1015 3 5 0.00 0.00
7:53 pm 19:53 Cloudy with Drizzle 34 1.1 32 0 92 92 SW 7 11 29.95 1014 3 5 0.00 0.03
8:53 pm 20:53 Cloudy with Mist and Fog 35 1.7 32 0 89 89 SW 8 13 29.94 1014 5 8 0.00 0.03
9:53 pm 21:53 Cloudy with Mist and Fog 36 2.2 32 0 86 86 W 12 19 29.94 1014 6 10 0.00 0.00
10:53 pm 22:53 Cloudy 37 2.8 32 0 82 82 WNW 13 20 29.96 1015 8 13 0.00 0.00
11:53 pm 23:53 Cloudy 36 2.2 29 -1.7 76 76 WNW 15 24 29.98 1015 10 16 0.00 0.00

Powered by AerisWeather